SENTINEL-3A

Last updated on Wed Sep 17 2025 00:02:31 GMT+0000 (Coordinated Universal Time)

1 41335U 16011A 25259.56968218 .00000085 00000+0 53044-4 0 9995 2 41335 98.6321 325.8344 0000950 106.8857 253.2427 14.26735033499040
UTC large
Height (km)
Speed (km/s)
/
Latitude / Longitude
Inclination (degrees)
Orbital Period (minutes)
Azimuth
Elevation
Range (km)
Doppler Factor

Next 0 passes for location: London (51.5072 / 0.1276)

Sorry there are no passes over London.